Probability
0 0 0 0 0 0 0 0 0 0 0 0 0 0 0 0 0 0 0 0 0 0 0 0 0 0 0 0 0 0 0 0 0 0 0 0 0 0 0 0 0 0 0 0
0 0 0 0 0 0 0 0 0 0 0 0 0 0 0 0 0 0 0 0 0 0 0 0 0 0 0 0 0 0 0 0 0 0 0 0 0 0 0 0 0 0 0 0
0 0 0 0 0 0 0 0 0 0 0 0 0 0 0 0 0 0 0 0 0 0 0 0 0 0 0 0 0 0 0 0 0 0 0 0 0 0 0 0 0 0 0 0
0 0 0 0 0 0 0 0 0 0 0 0 0 0 0 0 0 0 0 0 0 0 0 0 0 0 0 0 0 0 0 0 0 0 0 0 0 0 0 0 0 0 0 0
0 0 0 0 0 0 0 0 0 0 0 0 0 0 0 0 0 0 0 0 0 0 0 0 0 0 0 0 0 0 0 0 0 0 0 0 0 0 0 0 0 0 0 0
0 0 0 0 0 0 0 0 0 0 0 0 0 0 0 0 0 0 0 0 0 0 0 0 0 0 0 0 0 0 0 0 0 0 0 0 0 0 0 0 0 0 0 0
0 0 0 0 0 0 0 0 0 0 0 0 0 0 0 0 0 0 0 0 0 0 0 0 0 0 0 0 0 0 0 0 0 0 0 0 0 0 0 0 0 0 0 0
0 0 0 0 0 0 0 0 0 0 0 0 0 0 0 0 0 0 0 0 0 0 0 0 0 0 0 0 0 0 0 0 0 0 0 0 0 0 0 0 0 0 0 0
0 0 0 0 0 0 0 0 0 0 0 0 0 0 0 0 0 0 0 0 0 0 0 0 0 0 0 0 0 0 0 0 0 0 0 0 0 0 0 0 0 0 0 0
0 0 0 0 0 0 0 0 0 0 0 0 0 0 0 0 0 0 0 0 0 0 0 0 0 0 0 0 0 0 0 0 0 0 0 0 0 0 0 0 0 0 0 0
0 0 0 0 0 0 0 0 0 0 0 0 0 0 0 0 0 0 0 0 0 0 0 0 0 0 0 0 0 0 0 0 0 0 0 0 0 0 0 0 0 0 0 0
0 0 0 0 0 0 0 0 0 0 0 0 0 0 0 0 0 0 0 0 0 0 0 0 0 0 0 0 0 0 0 0 0 0 0 0 0 0 0 0 0 0 0 0
0 0 0 0 0 0 0 0 0 0 0 0 0 0 0 0 0 0 0 0 0 0 0 0 0 0 0 0 0 0 0 0 0 0 0 0 0 0 0 0 0 0 0 0
0 0 0 0 0 0 0 0 0 0 0 0 0 0 0 0 0 0 0 0 0 0 0 0 0 0 0 0 0 0 0 0 0 0 0 0 0 0 0 0 0 0 0 0
0 0 0 0 0 0 0 0 0 0 0 0 0 0 0 0 0 0 0 0 0 0 0 0 0 0 0 0 0 0 0 0 0 0 0 0 0 0 0 0 0 0 0 0
0 0 0 0 0 0 0 0 0 0 0 0 0 0 0 0 0 0 0 0 0 0 0 0 0 0 0 0 0 0 0 0 0 0 0 0 0 0 0 0 0 0 0 0
0 0 0 0 0 0 0 0 0 0 0 0 0 0 0 0 0 0 0 0 0 0 0 0 0 0 0 0 0 0 0 0 0 0 0 0 0 0 0 0 0 0 0 0
0 0 0 0 0 0 0 0 0 0 0 0 0 0 0 0 0 0 0 0 0 0 0 0 0 0 0 0 0 0 0 0 0 0 0 0 0 0 0 0 0 0 0 0
0 0 0 0 0 0 0 0 0 0 0 0 0 0 0 0 0 0 0 0 0 0 0 0 0 0 0 0 0 0 0 0 0 0 0 0 0 0 0 0 0 0 0 0
0 0 0 0 0 0 0 0 0 0 0 0 0 0 0 0 0 0 0 0 0 0 0 0 0 0 0 0 0 0 0 0 0 0 0 0 0 0 0 0 0 0 0 0
0 0 0 0 0 0 0 0 0 0 0 0 0 0 0 0 0 0 0 0 0 0 0 0 0 0 0 0 0 0 0 0 0 0 0 0 0 0 0 0 0 0 0 0
0 0 0 0 0 0 0 0 0 0 0 0 0 0 0 0 0 0 0 0 0 0 0 0 0 0 0 0 0 0 0 0 0 0 0 0 0 0 0 0 0 0 0 0
0 0 0 0 0 0 0 0 0 0 0 0 0 0 0 0 0 0 0 0 0 0 0 0 0 0 0 0 0 0 0 0 0 0 0 0 0 0 0 0 0 0 0 0
0 0 0 0 0 0 0 0 0 0 0 0 0 0 0 0 0 0 0 0 0 0 0 0 0 0 0 0 0 0 0 0 0 0 0 0 0 0 0 0 0 0 0 0
0 0 0 0 0 0 0 0 0 0 0 0 0 0 0 0 0 0 0 0 0 0 0 0 0 0 0 0 0 0 0 0 0 0 0 0 0 0 0 0 0 0 0 0
0 0 0 0 0 0 0 0 0 0 0 0 0 0 0 0 0 0 0 0 0 0 0 0 0 0 0 0 0 0 0 0 0 0 0 0 0 0 0 0 0 0 0 0
Wind_Speed
3 3 3 6 6 3 2 3 6 7 4 3 5 7 8 5 2 4 6 7 8 8 8 9 10 8 6 4 2 2 4 4 5 4 4 4 5 4 4 6 8 9 9 10
4 4 7 3 3 2 2 3 6 6 2 2 5 6 5 1 1 1 3 5 7 9 11 12 11 10 8 5 3 1 2 3 5 4 3 3 3 3 4 5 7 10 11 11
5 5 1 3 2 3 3 5 5 5 6 3 4 5 2 1 2 2 3 3 5 6 8 9 10 9 8 7 4 1 1 2 3 3 2 1 0 1 2 4 6 9 11 12
5 5 2 2 3 4 4 4 4 2 3 4 3 3 5 2 3 2 2 4 5 6 6 7 8 9 8 6 4 3 1 0 2 3 3 5 5 6 7 5 5 6 9 12
4 2 2 3 4 5 5 0 1 0 1 2 2 1 8 2 3 3 2 1 3 4 5 6 7 6 6 6 5 4 3 2 0 2 3 4 6 7 6 4 6 6 7 10
5 2 3 3 1 2 2 4 3 4 3 2 1 2 6 3 4 3 2 1 1 3 5 6 6 6 7 7 6 6 5 4 2 1 3 4 7 8 8 8 7 7 5 6
3 2 1 1 2 2 4 5 5 5 4 4 2 2 8 4 3 3 3 2 0 2 4 5 7 8 8 8 7 6 6 5 4 3 3 5 7 7 9 9 8 8 6 6
1 4 2 1 3 3 2 5 4 2 3 6 4 5 7 3 3 0 2 2 2 2 3 4 5 5 6 6 7 7 6 5 5 4 5 5 6 5 6 8 7 8 7 8
5 4 1 1 1 5 4 2 4 5 1 3 6 7 8 1 3 3 3 3 2 2 3 3 4 5 5 6 6 6 6 6 6 6 6 6 6 5 7 8 7 7 8 8
7 2 1 1 3 4 2 7 5 4 1 4 7 6 5 2 1 1 2 2 2 2 3 4 4 4 4 5 5 6 5 5 6 6 6 6 6 6 7 7 8 9 9 9
4 3 2 1 4 4 4 3 4 4 4 4 4 8 5 4 2 2 1 1 2 2 3 3 3 4 5 5 6 6 6 6 7 7 7 7 7 7 7 7 9 9 9 9
3 5 2 4 1 1 4 5 7 4 4 4 3 9 1 2 1 2 1 1 2 2 2 3 4 5 6 6 7 7 7 7 7 7 7 8 8 8 9 9 10 10 10 10
6 6 2 4 3 1 1 3 4 4 4 5 5 9 0 1 2 1 1 1 2 3 3 4 4 5 6 7 7 7 8 8 8 8 8 9 9 9 10 11 11 10 11 11
6 5 6 7 6 4 4 4 5 6 5 6 10 10 4 2 2 2 2 2 2 3 3 4 5 6 7 7 7 8 8 8 8 8 9 10 10 10 11 11 11 11 11 11
5 4 5 6 4 3 6 8 8 10 10 11 10 9 7 3 3 3 2 2 3 4 5 6 6 7 7 8 8 8 9 9 8 9 10 11 11 11 11 12 12 12 11 12
4 3 2 3 2 2 7 11 10 10 8 9 8 8 2 1 1 1 2 1 3 5 6 7 8 8 9 9 9 9 9 9 9 10 11 12 12 12 12 12 12 12 12 12
4 6 3 4 3 5 10 9 8 6 5 7 8 6 2 0 2 3 3 2 3 5 7 8 8 8 9 9 9 9 10 10 10 11 12 12 13 13 13 13 13 13 13 12
8 6 4 1 1 8 8 0 4 4 2 4 3 3 2 2 4 4 2 1 3 6 6 7 7 9 9 9 9 10 10 10 11 12 13 13 13 14 14 13 13 13 12 12
5 7 5 3 3 10 9 2 4 5 3 3 4 3 1 2 3 3 1 1 3 5 6 7 7 9 9 10 10 10 11 11 12 13 13 13 13 14 15 15 15 13 13 13
4 4 5 5 4 9 6 1 2 3 3 3 4 3 1 1 2 4 3 4 5 6 6 7 8 9 10 11 10 11 12 12 13 14 14 14 13 14 15 16 16 14 12 14
4 3 4 5 6 11 6 2 3 3 5 4 4 3 3 4 5 5 5 6 6 7 8 8 9 9 10 11 10 12 13 14 14 14 14 14 13 13 14 15 13 13 13 14
8 7 7 6 6 11 2 4 5 4 2 3 2 2 3 4 4 5 6 7 7 9 9 9 9 11 11 10 10 13 14 14 14 14 14 14 14 13 13 14 14 13 12 14
7 8 7 10 8 2 1 3 2 3 3 2 2 1 2 3 5 6 6 7 8 10 10 9 10 12 12 10 9 13 15 14 14 15 15 15 14 13 12 13 14 13 11 11
3 2 4 4 5 2 1 2 2 2 2 1 1 1 2 4 5 7 7 8 9 10 10 10 11 13 14 12 11 12 14 14 14 15 15 14 14 14 12 10 10 10 10 11
3 4 3 4 3 0 1 2 2 1 1 1 1 1 2 4 6 7 8 9 10 10 10 10 11 13 15 14 13 12 12 12 14 15 14 14 12 13 12 10 10 11 10 12
3 5 6 5 4 4 4 3 2 2 1 1 2 3 4 4 7 8 9 9 10 11 10 11 12 13 15 14 15 13 12 11 13 14 13 11 11 11 11 12 12 15 17 22
Wind_Direction
36 61 237 229 206 212 221 245 272 270 285 311 284 289 301 321 21 24 12 6 3 355 342 2 16 27 43 52 85 159 176 174 158 161 181 201 225 222 223 223 220 214 214 211
23 274 244 217 181 188 211 261 275 289 310 298 304 296 299 330 15 5 8 6 1 355 0 7 15 25 30 32 34 67 175 176 179 181 171 186 200 219 221 224 226 221 220 219
211 243 227 160 179 202 237 220 246 280 325 360 338 330 338 3 8 13 23 14 8 11 2 360 8 16 21 19 7 8 213 189 187 171 146 129 99 302 259 234 233 229 226 225
238 261 222 211 229 187 266 238 221 269 337 313 21 309 285 293 315 320 348 4 6 8 9 8 9 11 13 4 5 13 17 146 176 168 177 196 216 237 241 235 237 234 224 228
258 239 202 222 232 183 226 58 164 229 180 326 358 195 286 309 255 253 257 315 356 11 15 13 10 8 11 9 16 17 21 26 92 189 205 219 241 252 267 268 259 252 236 231
247 259 222 215 120 147 120 72 67 57 73 344 264 175 282 255 235 246 238 235 348 15 17 15 11 16 14 13 18 19 20 11 355 267 237 235 251 263 276 277 272 268 254 242
309 304 246 145 117 46 70 67 15 357 9 268 301 219 253 267 266 224 203 203 33 23 22 13 12 11 8 8 9 10 14 1 346 318 277 257 256 261 264 271 272 273 270 259
298 301 269 193 177 162 131 128 143 232 266 293 320 248 255 289 318 332 138 120 60 24 16 12 11 11 4 4 5 4 1 348 339 327 304 285 271 264 265 268 268 269 268 266
186 259 347 57 63 133 125 134 151 132 180 283 290 293 304 6 38 52 62 56 19 358 3 8 10 10 2 358 354 349 345 337 332 326 316 307 297 283 277 278 274 271 269 272
161 226 297 350 85 35 121 142 104 120 176 281 296 283 259 263 289 6 6 357 338 347 2 6 4 355 345 341 335 338 337 327 319 320 313 306 299 291 285 285 284 280 277 274
147 162 300 5 191 187 127 128 119 121 159 178 273 275 230 212 211 208 255 308 327 352 350 350 341 333 332 335 337 334 331 327 323 320 313 308 302 298 294 287 283 282 281 278
130 122 249 269 275 164 178 176 152 162 217 186 206 268 290 168 179 157 178 321 347 355 349 339 334 337 338 335 332 328 323 319 312 309 307 303 300 299 296 291 288 285 283 280
134 114 38 347 345 29 187 177 168 137 133 171 197 257 247 82 55 50 54 338 343 349 350 342 339 335 329 325 322 319 315 309 307 307 306 305 303 300 296 293 292 289 286 284
117 133 174 208 222 195 212 202 177 154 182 218 225 247 265 305 313 309 308 303 332 338 338 334 328 322 319 316 313 311 308 306 307 307 305 302 300 297 294 292 291 288 286 285
113 182 224 244 248 218 231 231 209 204 205 216 238 239 254 248 250 254 262 296 342 339 333 327 321 317 315 314 312 308 306 306 306 306 304 300 297 295 292 291 290 288 285 284
113 166 186 279 293 276 267 252 234 227 223 232 255 267 248 192 150 263 271 292 324 322 320 319 318 316 313 309 307 307 305 306 305 302 300 299 298 297 294 292 292 291 289 287
148 141 146 266 310 341 276 250 214 205 204 193 216 227 168 174 279 272 263 279 311 314 314 313 311 306 304 303 303 304 300 303 303 299 298 298 297 295 294 294 294 292 291 289
145 141 152 232 22 247 246 280 165 167 211 193 171 163 179 232 279 276 232 258 310 310 309 307 305 305 304 301 301 299 299 300 299 298 297 295 295 296 297 296 294 293 291 290
147 141 141 159 233 276 289 241 168 171 230 197 169 182 228 329 341 316 222 331 296 296 296 294 293 295 297 298 298 300 300 299 299 299 298 297 298 300 301 300 298 297 295 294
72 110 135 155 197 244 251 179 154 119 248 208 169 186 207 78 353 275 292 312 304 302 297 296 296 298 298 297 300 302 302 302 301 300 299 300 299 299 299 298 297 296 294 294
120 138 170 180 221 260 255 237 126 179 247 172 172 186 186 200 221 257 297 300 295 295 296 297 298 297 294 297 302 300 300 298 297 298 299 299 298 296 295 295 295 295 296 296
174 169 186 163 200 252 225 136 173 201 144 146 166 189 212 240 271 289 296 296 298 299 298 297 296 295 295 295 296 297 298 298 300 301 301 301 300 298 299 297 297 297 298 298
196 189 184 190 209 244 145 165 153 138 140 163 181 229 253 273 283 290 292 293 294 292 292 292 292 295 296 291 287 291 297 301 303 302 302 302 302 299 296 297 299 301 300 298
239 159 161 233 258 234 186 132 106 107 134 159 197 259 263 269 280 288 290 291 291 291 294 295 297 297 299 298 291 287 294 300 301 302 303 304 303 303 300 297 296 297 299 299
217 164 184 245 267 224 241 208 167 124 106 94 320 272 262 270 280 280 285 287 289 292 293 293 293 295 297 300 299 297 297 300 301 302 303 303 301 300 302 299 294 296 289 292
196 179 182 223 214 191 224 210 168 161 199 241 268 286 281 266 270 278 281 282 286 291 292 294 294 294 297 300 300 301 300 299 301 304 305 303 302 301 301 302 301 296 297 303